Regional Weather Roundup
Issued by NWS

Home | Current Version | Previous Version | Text Only | Print | Product List | Glossary On
Versions: 1 2 3 4 5 6 7 8 9 10 11 12 13 14 15 16 17 18 19 20 21 22 23 24 25 26 27 28 29 30 31 32 33 34 35 36 37 38 39 40 41 42 43 44 45 46 47 48 49 50
000
ASUS43 KTOP 201908
RWRKS

WEATHER ROUNDUP FOR KANSAS
NATIONAL WEATHER SERVICE GOODLAND KS
200 PM CDT SUN AUG 20 2017

NOTE:  "FAIR" INDICATES FEW OR NO CLOUDS BELOW 12,000 FEET WITH NO
SIGNIFICANT WEATHER AND/OR OBSTRUCTIONS TO VISIBILITY.

KSZ001>006-013>018-027>032-041>047-202000-
NORTHWEST KANSAS

CITY           SKY/WX    TMP DP  RH WIND       PRES   REMARKS
GOODLAND       CLOUDY    89  57  33 E3        29.98F
HAYS           SUNNY     97  64  33 S16       29.89F HX  99
HILL CITY      MOSUNNY   96  63  33 S10       29.91F HX  97
RUSSELL        MOSUNNY   95  67  39 S15G26    29.89F HX  99
$$

KSZ061>065-074>080-084>089-202000-
SOUTHWEST KANSAS

CITY           SKY/WX    TMP DP  RH WIND       PRES   REMARKS
DODGE CITY     SUNNY     96  60  30 S17G25    29.95F HX  96
ELKHART          N/A     88  65  46 S14         N/A
GARDEN CITY    SUNNY     91  64  40 S12       29.96F
GREAT BEND     SUNNY     95  70  44 S14G20    29.92F HX 101
LIBERAL        SUNNY     91  67  44 S15       29.99F
PRATT          SUNNY     95  63  34 S18       29.95S HX  96
$$

KSZ066>073-081>083-090>101-202000-
SOUTHEAST KANSAS

CITY           SKY/WX    TMP DP  RH WIND       PRES   REMARKS
CHANUTE        MOSUNNY   93  75  55 S14       29.97F HX 104
COFFEYVILLE    SUNNY     93  78  61 S12       29.96F HX 108
HUTCHINSON     SUNNY     95  69  42 S15G21    29.93F HX 100
MEDICINE LODGE   N/A     93  68  43 S10       29.93F HX  97
NEWTON         SUNNY     92  71  50 S15       29.96S HX  98
PARSONS        SUNNY     93  75  55 VRB6      29.98F HX 104
WICHITA INTL   PTSUNNY   94  71  47 S14G21    29.94F HX 101
WICHITA JABRA  SUNNY     91  74  57 S12G21    29.95F HX 100
WICHITA MCCONL SUNNY     92  71  49 S13       29.95F HX  99
WINFIELD       SUNNY     91  73  55 S13G20    29.97F HX  99
$$

KSZ007>012-019>026-033>040-048>060-102>105-202000-
NORTHEAST KANSAS

CITY           SKY/WX    TMP DP  RH WIND       PRES   REMARKS
CONCORDIA      MOSUNNY   92  73  53 SE8       29.91S HX 100
EMPORIA        SUNNY     90  73  57 S17G23    29.95F HX  98
LAWRENCE       SUNNY     88  73  61 SE16      29.96F HX  95
MANHATTAN      MOSUNNY   92  73  53 S13       29.90F HX 100
MARYSVILLE     SUNNY     90  72  55 SE12G20   29.94F HX  96
OLATHE IND     SUNNY     86  72  62 SE15      29.99F
OLATHE EXE     SUNNY     84  73  69 SE12G21   29.99F
SALINA         MOSUNNY   99  68  36 S15G24    29.89F HX 104
TOPEKA BILLARD SUNNY     90  74  59 SE10      29.95F HX  99
TOPEKA FORBES  SUNNY     92  74  55 SE10      29.96S HX 101
$$




USA.gov is the U.S. government's official web portal to all federal, state and local government web resources and services.